Leadville, CO

1:10 PM MST on January 20, 2017 (GMT -0700)
Lake County

Weather History for KLXV - December, 2013

Change the Weather History Date:

Sunday, December 15, 2013

  Actual Average Record
Temperature  
Mean Temperature 24 °F -  
Max Temperature 34 °F 29 °F 43 °F (1977)
Min Temperature 13 °F 4 °F -21 °F (2008)
Degree Days  
Heating Degree Days 41 49  
Month to date heating degree days 806 717  
Since 1 July heating degree days 4033 4122  
Cooling Degree Days 0 0  
Month to date cooling degree days 0 0  
Year to date cooling degree days 0 0  
Moisture  
Dew Point 10 °F    
Average Humidity 58    
Maximum Humidity 74    
Minimum Humidity 41    
Precipitation  
Precipitation T in 0.02 in 0.27 in (1983)
Month to date precipitation 0.62 0.37  
Year to date precipitation 17.56 12.07  
Sea Level Pressure  
Sea Level Pressure 30.34 in    
Wind  
Wind Speed 6 mph (North)    
Max Wind Speed 20 mph    
Max Gust Speed 29 mph    
Visibility 10 miles    
Events Snow    
T = Trace of Precipitation, MM = Missing Value Source: NWS Daily Summary

Daily Weather History Graph

Daily Weather History Graph

Search for Another Location

Airport or City:

Trip Planner

Search our weather history database for the weather conditions in past years. The results will help you decide how hot, cold, wet, or windy it might be!

Date:

Astronomy

Dec. 15, 2013 Rise Set
Actual Time 7:17 AM MST 4:43 PM MST
Civil Twilight 6:47 AM MST 5:13 PM MST
Nautical Twilight 6:14 AM MST 5:47 PM MST
Astronomical Twilight 5:41 AM MST 6:19 PM MST
Moon 3:49 PM MST (12/15) 5:37 AM MST (12/15)
Length of Visible Light 10h 25m
Length of Day
9h 25m
Waxing Gibbous, 98% of the Moon is Illuminated
Dec 15
Waxing Gibbous
Dec 17
Full
Dec 25
Last Quarter
Jan 1
New
Jan 7
First Quarter

Hourly Weather History & Observations

Time (MST) Temp. Windchill Dew Point Humidity Pressure Visibility Wind Dir Wind Speed Gust Speed Precip Events Conditions
12:53 AM 18.0 °F 6.1 °F 8.1 °F 65% 30.30 in 10.0 mi NE 10.4 mph - N/A   Mostly Cloudy
1:53 AM 21.0 °F 14.6 °F 7.0 °F 55% 30.27 in 10.0 mi Variable 4.6 mph - N/A   Overcast
2:53 AM 18.0 °F 11.1 °F 8.1 °F 65% 30.31 in 10.0 mi Variable 4.6 mph - N/A   Overcast
3:53 AM 18.0 °F 11.1 °F 9.0 °F 68% 30.32 in 10.0 mi NNE 4.6 mph - N/A   Overcast
4:53 AM 18.0 °F 8.7 °F 10.0 °F 71% 30.34 in 10.0 mi NE 6.9 mph - N/A   Overcast
5:53 AM 19.0 °F - 12.0 °F 74% 30.39 in 9.0 mi Calm Calm - 0.00 in   Overcast
6:53 AM 17.1 °F 10.0 °F 12.0 °F 81% 30.42 in 7.0 mi ENE 4.6 mph - 0.00 in Snow Light Snow
7:53 AM 16.0 °F 6.3 °F 12.0 °F 84% 30.45 in 10.0 mi North 6.9 mph - 0.00 in   Overcast
8:38 AM 19.0 °F 6.8 °F 12.0 °F 74% 30.38 in 10.0 mi North 11.5 mph - N/A   Overcast
8:53 AM 21.0 °F 12.4 °F 12.0 °F 68% 30.44 in 10.0 mi North 6.9 mph - N/A   Overcast
9:30 AM 25.0 °F 16.3 °F 12.9 °F 60% 30.38 in 10.0 mi North 8.1 mph - N/A   Scattered Clouds
9:53 AM 25.0 °F 14.8 °F 12.0 °F 58% 30.41 in 10.0 mi NNW 10.4 mph - N/A   Partly Cloudy
10:53 AM 28.9 °F 22.8 °F 12.9 °F 51% 30.35 in 10.0 mi NNW 5.8 mph - N/A   Clear
11:53 AM 30.9 °F 22.8 °F 12.9 °F 47% 30.29 in 10.0 mi NW 9.2 mph - N/A   Clear
12:53 PM 32.0 °F 22.5 °F 12.0 °F 44% 30.25 in 10.0 mi NNW 12.7 mph 21.9 mph N/A   Clear
1:53 PM 33.1 °F 24.9 °F 12.9 °F 43% 30.22 in 10.0 mi NNW 10.4 mph - N/A   Clear
2:53 PM 33.1 °F 22.6 °F 12.9 °F 43% 30.24 in 10.0 mi NW 16.1 mph 24.2 mph N/A   Clear
3:53 PM 30.0 °F 21.1 °F 10.9 °F 45% 30.29 in 10.0 mi NNW 10.4 mph 28.8 mph N/A   Clear
4:53 PM 27.0 °F 21.6 °F 10.0 °F 49% 30.31 in 10.0 mi North 4.6 mph - N/A   Clear
5:53 PM 24.1 °F 19.7 °F 10.0 °F 55% 30.32 in 10.0 mi NE 3.5 mph - N/A   Clear
6:53 PM 19.0 °F 13.9 °F 9.0 °F 65% 30.42 in 10.0 mi Variable 3.5 mph - N/A   Clear
7:53 PM 19.0 °F - 8.1 °F 62% 30.43 in 10.0 mi Calm Calm - N/A   Clear
8:53 PM 17.1 °F 11.7 °F 7.0 °F 65% 30.42 in 10.0 mi Variable 3.5 mph - N/A   Clear
9:53 PM 19.9 °F 12.1 °F 7.0 °F 57% 30.36 in 10.0 mi East 5.8 mph - N/A   Clear
10:53 PM 21.9 °F - 8.1 °F 55% 30.32 in 10.0 mi Calm Calm - N/A   Scattered Clouds
11:53 PM 18.0 °F 7.7 °F 7.0 °F 62% 30.32 in 10.0 mi ENE 8.1 mph - N/A   Clear